Wetterdaten: Montag, 25.05.2020
Datum Zeit Temp. Auen Feucht Auen Luftdruck Regen Richtung Richtung Windben
25.05.2020 00:00 10,5 C 88 % 1030,2 hPa 0,0 mm W 273 0,0 km/h (0 Bft)
25.05.2020 00:05 10,5 C 88 % 1030,3 hPa 0,0 mm W 273 0,0 km/h (0 Bft)
25.05.2020 00:10 10,4 C 88 % 1030,3 hPa 0,0 mm W 273 0,0 km/h (0 Bft)
25.05.2020 00:15 10,4 C 89 % 1030,3 hPa 0,0 mm W 273 0,0 km/h (0 Bft)
25.05.2020 00:20 10,4 C 89 % 1030,3 hPa 0,0 mm W 273 0,0 km/h (0 Bft)
25.05.2020 00:25 10,4 C 89 % 1030,3 hPa 0,0 mm W 273 0,0 km/h (0 Bft)
25.05.2020 00:30 10,4 C 89 % 1030,3 hPa 0,0 mm W 273 0,0 km/h (0 Bft)
25.05.2020 00:35 10,4 C 89 % 1030,2 hPa 0,0 mm W 273 0,0 km/h (0 Bft)
25.05.2020 00:40 10,4 C 89 % 1030,2 hPa 0,0 mm W 273 0,0 km/h (0 Bft)
25.05.2020 00:45 10,4 C 89 % 1030,2 hPa 0,0 mm W 273 0,0 km/h (0 Bft)
25.05.2020 00:50 10,4 C 89 % 1030,2 hPa 0,0 mm W 273 0,0 km/h (0 Bft)
25.05.2020 00:55 10,3 C 89 % 1030,2 hPa 0,0 mm W 273 0,0 km/h (0 Bft)
25.05.2020 01:00 10,3 C 89 % 1030,1 hPa 0,0 mm W 273 0,0 km/h (0 Bft)
25.05.2020 01:05 10,3 C 89 % 1030,0 hPa 0,0 mm W 273 0,0 km/h (0 Bft)
25.05.2020 01:10 10,3 C 89 % 1030,1 hPa 0,0 mm W 273 0,0 km/h (0 Bft)
25.05.2020 01:15 10,3 C 89 % 1030,0 hPa 0,0 mm W 273 0,0 km/h (0 Bft)
25.05.2020 01:20 10,3 C 90 % 1030,0 hPa 0,0 mm W 273 0,0 km/h (0 Bft)
25.05.2020 01:25 10,3 C 90 % 1030,0 hPa 0,0 mm W 273 0,0 km/h (0 Bft)
25.05.2020 01:30 10,2 C 90 % 1030,0 hPa 0,0 mm W 273 0,0 km/h (0 Bft)
25.05.2020 01:35 10,2 C 90 % 1030,0 hPa 0,0 mm W 273 0,0 km/h (0 Bft)
25.05.2020 01:40 10,2 C 90 % 1029,9 hPa 0,0 mm W 273 0,0 km/h (0 Bft)
25.05.2020 01:45 10,2 C 90 % 1030,0 hPa 0,0 mm W 273 0,0 km/h (0 Bft)
25.05.2020 01:50 10,2 C 90 % 1030,0 hPa 0,0 mm W 273 0,0 km/h (0 Bft)
25.05.2020 01:55 10,1 C 90 % 1029,9 hPa 0,0 mm W 273 0,0 km/h (0 Bft)
25.05.2020 02:00 10,1 C 90 % 1029,9 hPa 0,0 mm W 273 0,0 km/h (0 Bft)
25.05.2020 02:05 10,1 C 90 % 1029,8 hPa 0,0 mm W 273 0,0 km/h (0 Bft)
25.05.2020 02:10 10,1 C 90 % 1029,9 hPa 0,0 mm W 273 0,0 km/h (0 Bft)
25.05.2020 02:15 10,1 C 90 % 1029,8 hPa 0,0 mm W 273 0,0 km/h (0 Bft)
25.05.2020 02:20 10,1 C 90 % 1029,8 hPa 0,0 mm W 273 0,0 km/h (0 Bft)
25.05.2020 02:25 10,1 C 90 % 1029,7 hPa 0,0 mm W 273 0,0 km/h (0 Bft)
25.05.2020 02:30 10,1 C 90 % 1029,8 hPa 0,0 mm W 273 0,0 km/h (0 Bft)
25.05.2020 02:35 10,1 C 90 % 1029,7 hPa 0,0 mm W 273 0,0 km/h (0 Bft)
25.05.2020 02:40 10,1 C 90 % 1029,7 hPa 0,0 mm W 273 0,0 km/h (0 Bft)
25.05.2020 02:45 10,1 C 90 % 1029,7 hPa 0,0 mm W 273 0,0 km/h (0 Bft)
25.05.2020 02:50 10,1 C 91 % 1029,7 hPa 0,0 mm W 273 0,0 km/h (0 Bft)
25.05.2020 02:55 10,1 C 90 % 1029,7 hPa 0,0 mm W 273 0,0 km/h (0 Bft)
25.05.2020 03:00 10,1 C 91 % 1029,7 hPa 0,0 mm W 273 0,0 km/h (0 Bft)
25.05.2020 03:05 10,1 C 91 % 1029,7 hPa 0,0 mm W 273 0,0 km/h (0 Bft)
25.05.2020 03:10 10,1 C 91 % 1029,7 hPa 0,0 mm W 273 0,0 km/h (0 Bft)
25.05.2020 03:15 10,0 C 91 % 1029,7 hPa 0,0 mm W 263 6,4 km/h (2 Bft)
25.05.2020 03:20 10,0 C 91 % 1029,7 hPa 0,0 mm W 263 4,8 km/h (1 Bft)
25.05.2020 03:25 10,0 C 91 % 1029,7 hPa 0,0 mm W 270 6,4 km/h (2 Bft)
25.05.2020 03:30 9,9 C 91 % 1029,8 hPa 0,2 mm W 279 12,9 km/h (3 Bft)
25.05.2020 03:35 9,9 C 91 % 1029,9 hPa 0,0 mm W-SW 251 12,9 km/h (3 Bft)
25.05.2020 03:40 9,9 C 91 % 1029,9 hPa 0,4 mm W 273 12,9 km/h (3 Bft)
25.05.2020 03:45 9,9 C 91 % 1030,0 hPa 0,4 mm W-NW 290 17,7 km/h (3 Bft)
25.05.2020 03:50 9,9 C 91 % 1030,0 hPa 0,2 mm W 276 11,3 km/h (2 Bft)
25.05.2020 03:55 9,9 C 91 % 1030,0 hPa 0,0 mm W 267 8,0 km/h (2 Bft)
25.05.2020 04:00 9,9 C 91 % 1029,9 hPa 0,2 mm W 278 9,7 km/h (2 Bft)
25.05.2020 04:05 9,9 C 91 % 1030,0 hPa 0,2 mm W 275 6,4 km/h (2 Bft)
25.05.2020 04:10 9,9 C 91 % 1029,8 hPa 0,2 mm W 267 8,0 km/h (2 Bft)
25.05.2020 04:15 9,8 C 91 % 1029,7 hPa 0,0 mm W 267 6,4 km/h (2 Bft)
25.05.2020 04:20 9,8 C 91 % 1029,7 hPa 0,0 mm W 267 4,8 km/h (1 Bft)
25.05.2020 04:25 9,8 C 91 % 1029,8 hPa 0,0 mm W 267 6,4 km/h (2 Bft)
25.05.2020 04:30 9,8 C 91 % 1029,7 hPa 0,0 mm W 280 8,0 km/h (2 Bft)
25.05.2020 04:35 9,7 C 91 % 1029,8 hPa 0,0 mm W 259 11,3 km/h (2 Bft)
25.05.2020 04:40 9,7 C 91 % 1029,7 hPa 0,2 mm W 281 12,9 km/h (3 Bft)
25.05.2020 04:45 9,7 C 91 % 1029,7 hPa 0,0 mm W 276 14,5 km/h (3 Bft)
25.05.2020 04:50 9,7 C 91 % 1029,7 hPa 0,0 mm W 274 12,9 km/h (3 Bft)
25.05.2020 04:55 9,6 C 91 % 1029,7 hPa 0,0 mm W 270 11,3 km/h (2 Bft)
25.05.2020 05:00 9,6 C 91 % 1029,7 hPa 0,0 mm W 275 8,0 km/h (2 Bft)
25.05.2020 05:05 9,6 C 91 % 1029,7 hPa 0,2 mm W-NW 284 9,7 km/h (2 Bft)
25.05.2020 05:10 9,5 C 91 % 1029,8 hPa 0,2 mm W 267 8,0 km/h (2 Bft)
25.05.2020 05:15 9,5 C 91 % 1029,8 hPa 0,0 mm W 275 9,7 km/h (2 Bft)
25.05.2020 05:20 9,5 C 91 % 1029,7 hPa 0,2 mm W 274 6,4 km/h (2 Bft)
25.05.2020 05:25 9,5 C 91 % 1029,6 hPa 0,0 mm W 274 4,8 km/h (1 Bft)
25.05.2020 05:30 9,5 C 91 % 1029,6 hPa 0,0 mm W 274 4,8 km/h (1 Bft)
25.05.2020 05:35 9,5 C 91 % 1029,7 hPa 0,2 mm W-NW 285 8,0 km/h (2 Bft)
25.05.2020 05:40 9,5 C 92 % 1029,8 hPa 0,4 mm W 276 8,0 km/h (2 Bft)
25.05.2020 05:45 9,5 C 92 % 1029,8 hPa 0,2 mm W 267 9,7 km/h (2 Bft)
25.05.2020 05:50 9,5 C 92 % 1029,8 hPa 0,0 mm W 276 12,9 km/h (3 Bft)
25.05.2020 05:55 9,5 C 92 % 1029,8 hPa 0,2 mm W 276 4,8 km/h (1 Bft)
25.05.2020 06:00 9,5 C 92 % 1029,7 hPa 0,0 mm W 271 6,4 km/h (2 Bft)
25.05.2020 06:05 9,5 C 92 % 1029,7 hPa 0,0 mm W 266 6,4 km/h (2 Bft)
25.05.2020 06:10 9,5 C 92 % 1029,8 hPa 0,0 mm W 273 8,0 km/h (2 Bft)
25.05.2020 06:15 9,5 C 92 % 1029,7 hPa 0,0 mm W 267 11,3 km/h (2 Bft)
25.05.2020 06:20 9,5 C 92 % 1029,7 hPa 0,0 mm W-SW 258 9,7 km/h (2 Bft)
25.05.2020 06:25 9,5 C 92 % 1029,7 hPa 0,0 mm W 274 9,7 km/h (2 Bft)
25.05.2020 06:30 9,5 C 92 % 1029,8 hPa 0,0 mm W 267 11,3 km/h (2 Bft)
25.05.2020 06:35 9,6 C 92 % 1029,8 hPa 0,0 mm W 275 11,3 km/h (2 Bft)
25.05.2020 06:40 9,6 C 92 % 1029,8 hPa 0,0 mm W 259 9,7 km/h (2 Bft)
25.05.2020 06:45 9,6 C 92 % 1029,8 hPa 0,0 mm W 275 9,7 km/h (2 Bft)
25.05.2020 06:50 9,6 C 92 % 1029,9 hPa 0,0 mm W 275 9,7 km/h (2 Bft)
25.05.2020 06:55 9,6 C 92 % 1030,0 hPa 0,0 mm W-SW 244 12,9 km/h (3 Bft)
25.05.2020 07:00 9,6 C 92 % 1030,0 hPa 0,0 mm W-SW 255 8,0 km/h (2 Bft)
25.05.2020 07:05 9,7 C 92 % 1029,9 hPa 0,0 mm W 263 11,3 km/h (2 Bft)
25.05.2020 07:10 9,7 C 92 % 1029,9 hPa 0,0 mm W-NW 282 9,7 km/h (2 Bft)
25.05.2020 07:15 9,7 C 92 % 1029,9 hPa 0,0 mm W-SW 248 8,0 km/h (2 Bft)
25.05.2020 07:20 9,8 C 92 % 1029,9 hPa 0,0 mm W 271 8,0 km/h (2 Bft)
25.05.2020 07:25 9,8 C 92 % 1029,8 hPa 0,0 mm W 278 9,7 km/h (2 Bft)
25.05.2020 07:30 9,9 C 92 % 1029,8 hPa 0,0 mm W 275 8,0 km/h (2 Bft)
25.05.2020 07:35 9,9 C 92 % 1029,8 hPa 0,0 mm W 278 9,7 km/h (2 Bft)
25.05.2020 07:40 9,9 C 92 % 1029,8 hPa 0,0 mm W-NW 287 4,8 km/h (1 Bft)
25.05.2020 07:45 9,9 C 92 % 1029,8 hPa 0,0 mm W 275 6,4 km/h (2 Bft)
25.05.2020 07:50 10,0 C 92 % 1029,7 hPa 0,2 mm W 275 4,8 km/h (1 Bft)
25.05.2020 07:55 10,0 C 92 % 1029,6 hPa 0,0 mm W 275 4,8 km/h (1 Bft)
25.05.2020 08:00 10,0 C 92 % 1029,7 hPa 0,0 mm W 275 3,2 km/h (1 Bft)
25.05.2020 08:05 10,1 C 92 % 1029,7 hPa 0,4 mm W 275 8,0 km/h (2 Bft)
25.05.2020 08:10 10,1 C 92 % 1029,8 hPa 0,2 mm W 275 8,0 km/h (2 Bft)
25.05.2020 08:15 10,1 C 92 % 1029,7 hPa 0,0 mm W 271 12,9 km/h (3 Bft)
25.05.2020 08:20 10,1 C 92 % 1029,7 hPa 0,0 mm W 279 12,9 km/h (3 Bft)
25.05.2020 08:25 10,1 C 92 % 1029,7 hPa 0,2 mm W 271 9,7 km/h (2 Bft)
25.05.2020 08:30 10,2 C 92 % 1029,7 hPa 0,0 mm W 263 9,7 km/h (2 Bft)
25.05.2020 08:35 10,3 C 92 % 1029,8 hPa 0,0 mm W 266 11,3 km/h (2 Bft)
25.05.2020 08:40 10,4 C 92 % 1029,9 hPa 0,2 mm W 265 9,7 km/h (2 Bft)
25.05.2020 08:45 10,6 C 92 % 1029,8 hPa 0,2 mm W 271 11,3 km/h (2 Bft)
25.05.2020 08:50 10,6 C 92 % 1029,8 hPa 0,2 mm W-SW 255 12,9 km/h (3 Bft)
25.05.2020 08:55 10,7 C 92 % 1029,8 hPa 0,0 mm W 279 12,9 km/h (3 Bft)
25.05.2020 09:00 10,7 C 92 % 1029,8 hPa 0,0 mm W 262 9,7 km/h (2 Bft)
25.05.2020 09:05 10,7 C 92 % 1029,8 hPa 0,0 mm W 264 16,1 km/h (3 Bft)
25.05.2020 09:10 10,6 C 92 % 1029,8 hPa 0,0 mm W 271 16,1 km/h (3 Bft)
25.05.2020 09:15 10,6 C 92 % 1029,8 hPa 0,0 mm W 260 19,3 km/h (3 Bft)
25.05.2020 09:20 10,8 C 92 % 1029,8 hPa 0,0 mm W 276 16,1 km/h (3 Bft)
25.05.2020 09:25 10,8 C 92 % 1029,8 hPa 0,0 mm W 281 19,3 km/h (3 Bft)
25.05.2020 09:30 10,8 C 92 % 1029,8 hPa 0,0 mm W-SW 257 19,3 km/h (3 Bft)
25.05.2020 09:35 10,9 C 92 % 1029,8 hPa 0,0 mm W 259 20,9 km/h (4 Bft)
25.05.2020 09:40 10,9 C 92 % 1029,8 hPa 0,0 mm W 272 16,1 km/h (3 Bft)
25.05.2020 09:45 10,9 C 91 % 1029,8 hPa 0,4 mm W 264 17,7 km/h (3 Bft)
25.05.2020 09:50 10,8 C 91 % 1029,8 hPa 0,2 mm W 279 19,3 km/h (3 Bft)
25.05.2020 09:55 10,8 C 91 % 1029,8 hPa 0,0 mm W 262 19,3 km/h (3 Bft)
25.05.2020 10:00 10,7 C 91 % 1029,8 hPa 0,0 mm W 277 20,9 km/h (4 Bft)
25.05.2020 10:05 10,6 C 92 % 1029,9 hPa 0,2 mm W 274 29,0 km/h (5 Bft)
25.05.2020 10:10 10,6 C 92 % 1029,9 hPa 0,2 mm W-SW 252 19,3 km/h (3 Bft)
25.05.2020 10:15 10,6 C 92 % 1029,9 hPa 0,2 mm W 262 19,3 km/h (3 Bft)
25.05.2020 10:20 10,7 C 92 % 1029,9 hPa 0,0 mm W 265 19,3 km/h (3 Bft)
25.05.2020 10:25 10,7 C 92 % 1029,8 hPa 0,0 mm W 267 22,5 km/h (4 Bft)
25.05.2020 10:30 10,8 C 92 % 1029,8 hPa 0,0 mm NW 310 19,3 km/h (3 Bft)
25.05.2020 10:35 11,0 C 92 % 1029,7 hPa 0,0 mm W-NW 294 20,9 km/h (4 Bft)
25.05.2020 10:40 11,1 C 92 % 1029,7 hPa 0,0 mm W-NW 294 17,7 km/h (3 Bft)
25.05.2020 10:45 11,0 C 92 % 1029,7 hPa 0,0 mm W 276 20,9 km/h (4 Bft)
25.05.2020 10:50 10,9 C 92 % 1029,7 hPa 0,2 mm W 259 20,9 km/h (4 Bft)
25.05.2020 10:55 10,8 C 92 % 1029,6 hPa 0,2 mm W 265 20,9 km/h (4 Bft)
25.05.2020 11:00 10,8 C 92 % 1029,7 hPa 0,2 mm W 264 17,7 km/h (3 Bft)
25.05.2020 11:05 10,8 C 92 % 1029,7 hPa 0,0 mm W-SW 257 17,7 km/h (3 Bft)
25.05.2020 11:10 11,0 C 92 % 1029,6 hPa 0,2 mm W-NW 286 16,1 km/h (3 Bft)
25.05.2020 11:15 11,0 C 92 % 1029,6 hPa 0,2 mm W 267 17,7 km/h (3 Bft)
25.05.2020 11:20 11,1 C 92 % 1029,6 hPa 0,0 mm W 268 19,3 km/h (3 Bft)
25.05.2020 11:25 10,9 C 92 % 1029,6 hPa 0,0 mm W 267 25,7 km/h (4 Bft)
25.05.2020 11:30 11,0 C 92 % 1029,7 hPa 0,0 mm W 277 20,9 km/h (4 Bft)
25.05.2020 11:35 11,1 C 92 % 1029,7 hPa 0,0 mm W 271 22,5 km/h (4 Bft)
25.05.2020 11:40 11,2 C 92 % 1029,7 hPa 0,0 mm W 261 20,9 km/h (4 Bft)
25.05.2020 11:45 11,2 C 91 % 1029,6 hPa 0,0 mm W-NW 285 22,5 km/h (4 Bft)
25.05.2020 11:50 11,3 C 91 % 1029,7 hPa 0,0 mm W 265 22,5 km/h (4 Bft)
25.05.2020 11:55 11,4 C 91 % 1029,7 hPa 0,0 mm W 279 16,1 km/h (3 Bft)
25.05.2020 12:00 11,7 C 91 % 1029,6 hPa 0,0 mm W 276 19,3 km/h (3 Bft)
25.05.2020 12:05 11,9 C 91 % 1029,6 hPa 0,0 mm W 269 19,3 km/h (3 Bft)
25.05.2020 12:10 12,3 C 91 % 1029,6 hPa 0,0 mm W-SW 250 22,5 km/h (4 Bft)
25.05.2020 12:15 12,7 C 90 % 1029,5 hPa 0,0 mm W 261 20,9 km/h (4 Bft)
25.05.2020 12:20 12,9 C 89 % 1029,6 hPa 0,0 mm W 267 22,5 km/h (4 Bft)
25.05.2020 12:25 12,8 C 88 % 1029,5 hPa 0,0 mm N-NW 330 17,7 km/h (3 Bft)
25.05.2020 12:30 13,1 C 89 % 1029,5 hPa 0,0 mm W 270 20,9 km/h (4 Bft)
25.05.2020 12:35 13,9 C 88 % 1029,4 hPa 0,0 mm W-NW 284 17,7 km/h (3 Bft)
25.05.2020 12:40 14,6 C 86 % 1029,4 hPa 0,0 mm W-NW 296 19,3 km/h (3 Bft)
25.05.2020 12:45 14,3 C 84 % 1029,3 hPa 0,0 mm W 267 20,9 km/h (4 Bft)
25.05.2020 12:50 14,9 C 84 % 1029,2 hPa 0,0 mm W 268 19,3 km/h (3 Bft)
25.05.2020 12:55 15,2 C 85 % 1029,1 hPa 0,0 mm W-SW 248 19,3 km/h (3 Bft)
25.05.2020 13:00 15,7 C 82 % 1029,1 hPa 0,0 mm W 264 17,7 km/h (3 Bft)
25.05.2020 13:05 15,1 C 81 % 1029,0 hPa 0,0 mm W-NW 291 22,5 km/h (4 Bft)
25.05.2020 13:10 15,1 C 80 % 1029,0 hPa 0,0 mm W-SW 248 22,5 km/h (4 Bft)
25.05.2020 13:15 14,5 C 80 % 1029,1 hPa 0,0 mm W-NW 299 29,0 km/h (5 Bft)
25.05.2020 13:20 14,2 C 80 % 1028,9 hPa 0,0 mm W 277 30,6 km/h (5 Bft)
25.05.2020 13:25 14,9 C 79 % 1028,9 hPa 0,0 mm SW 221 22,5 km/h (4 Bft)
25.05.2020 13:30 14,7 C 78 % 1028,8 hPa 0,0 mm W-NW 285 32,2 km/h (5 Bft)
25.05.2020 13:35 15,1 C 77 % 1028,9 hPa 0,0 mm W-SW 247 29,0 km/h (5 Bft)
25.05.2020 13:40 14,4 C 77 % 1028,9 hPa 0,0 mm W 269 24,1 km/h (4 Bft)
25.05.2020 13:45 15,0 C 78 % 1028,8 hPa 0,0 mm W 264 22,5 km/h (4 Bft)
25.05.2020 13:50 15,1 C 76 % 1028,9 hPa 0,0 mm W-NW 295 17,7 km/h (3 Bft)
25.05.2020 13:55 15,1 C 75 % 1028,9 hPa 0,0 mm W-SW 242 33,8 km/h (5 Bft)
25.05.2020 14:00 15,4 C 75 % 1028,8 hPa 0,0 mm W 263 22,5 km/h (4 Bft)
25.05.2020 14:05 15,9 C 73 % 1028,8 hPa 0,0 mm W-NW 296 30,6 km/h (5 Bft)
25.05.2020 14:10 16,3 C 72 % 1028,8 hPa 0,0 mm W-SW 242 30,6 km/h (5 Bft)
25.05.2020 14:15 16,1 C 69 % 1028,8 hPa 0,0 mm W 259 30,6 km/h (5 Bft)
25.05.2020 14:20 15,9 C 70 % 1028,5 hPa 0,0 mm W 263 29,0 km/h (5 Bft)
25.05.2020 14:25 16,1 C 70 % 1028,6 hPa 0,0 mm W 269 29,0 km/h (5 Bft)
25.05.2020 14:30 15,5 C 71 % 1028,6 hPa 0,0 mm W 271 20,9 km/h (4 Bft)
25.05.2020 14:35 15,3 C 72 % 1028,6 hPa 0,0 mm W 267 22,5 km/h (4 Bft)
25.05.2020 14:40 15,2 C 72 % 1028,4 hPa 0,0 mm W 275 25,7 km/h (4 Bft)
25.05.2020 14:45 15,7 C 73 % 1028,4 hPa 0,0 mm W 269 19,3 km/h (3 Bft)
25.05.2020 14:50 15,8 C 72 % 1028,4 hPa 0,0 mm W 265 22,5 km/h (4 Bft)
25.05.2020 14:55 15,3 C 72 % 1028,3 hPa 0,0 mm W 275 29,0 km/h (5 Bft)
25.05.2020 15:00 15,2 C 72 % 1028,3 hPa 0,0 mm SW 231 17,7 km/h (3 Bft)
25.05.2020 15:05 15,7 C 71 % 1028,3 hPa 0,0 mm W 274 22,5 km/h (4 Bft)
25.05.2020 15:10 16,4 C 69 % 1028,1 hPa 0,0 mm W-NW 285 27,4 km/h (4 Bft)
25.05.2020 15:15 16,2 C 66 % 1027,9 hPa 0,0 mm W-SW 240 25,7 km/h (4 Bft)
25.05.2020 15:20 15,3 C 68 % 1027,9 hPa 0,0 mm W 281 29,0 km/h (5 Bft)
25.05.2020 15:25 15,3 C 68 % 1027,8 hPa 0,0 mm W-SW 251 20,9 km/h (4 Bft)
25.05.2020 15:30 15,1 C 68 % 1027,7 hPa 0,0 mm W 269 22,5 km/h (4 Bft)
25.05.2020 15:35 14,7 C 68 % 1027,7 hPa 0,0 mm W 273 27,4 km/h (4 Bft)
25.05.2020 15:40 14,6 C 71 % 1028,0 hPa 0,0 mm W-SW 258 22,5 km/h (4 Bft)
25.05.2020 15:45 14,4 C 74 % 1028,3 hPa 0,2 mm W-NW 291 25,7 km/h (4 Bft)
25.05.2020 15:50 13,9 C 75 % 1028,8 hPa 0,2 mm W 267 25,7 km/h (4 Bft)
25.05.2020 15:55 12,9 C 76 % 1029,0 hPa 0,6 mm W-SW 246 22,5 km/h (4 Bft)
25.05.2020 16:00 12,0 C 79 % 1028,8 hPa 0,6 mm W-SW 257 20,9 km/h (4 Bft)
25.05.2020 16:05 11,6 C 83 % 1029,0 hPa 0,2 mm W 274 19,3 km/h (3 Bft)
25.05.2020 16:10 11,5 C 85 % 1029,2 hPa 0,2 mm W-SW 251 20,9 km/h (4 Bft)
25.05.2020 16:15 11,3 C 86 % 1028,9 hPa 0,8 mm W 265 12,9 km/h (3 Bft)
25.05.2020 16:20 11,3 C 88 % 1028,9 hPa 0,0 mm W 273 14,5 km/h (3 Bft)
25.05.2020 16:25 11,4 C 89 % 1028,9 hPa 0,0 mm W 260 14,5 km/h (3 Bft)
25.05.2020 16:30 11,5 C 90 % 1028,8 hPa 0,0 mm W 267 11,3 km/h (2 Bft)
25.05.2020 16:35 11,4 C 90 % 1028,8 hPa 0,0 mm W 259 9,7 km/h (2 Bft)
25.05.2020 16:40 11,4 C 90 % 1028,8 hPa 0,0 mm W 271 9,7 km/h (2 Bft)
25.05.2020 16:45 11,4 C 90 % 1028,9 hPa 0,0 mm W 272 8,0 km/h (2 Bft)
25.05.2020 16:50 11,6 C 91 % 1028,9 hPa 0,0 mm W 266 11,3 km/h (2 Bft)
25.05.2020 16:55 11,7 C 90 % 1028,7 hPa 0,2 mm W 263 11,3 km/h (2 Bft)
25.05.2020 17:00 11,8 C 91 % 1028,6 hPa 0,0 mm W 275 11,3 km/h (2 Bft)
25.05.2020 17:05 11,8 C 90 % 1028,6 hPa 0,0 mm N 355 11,3 km/h (2 Bft)
25.05.2020 17:10 11,8 C 90 % 1028,6 hPa 0,0 mm W-NW 282 12,9 km/h (3 Bft)
25.05.2020 17:15 11,7 C 90 % 1028,6 hPa 0,0 mm W 278 8,0 km/h (2 Bft)
25.05.2020 17:20 11,6 C 90 % 1028,6 hPa 0,0 mm W 272 9,7 km/h (2 Bft)
25.05.2020 17:25 11,7 C 90 % 1028,5 hPa 0,0 mm W-NW 282 8,0 km/h (2 Bft)
25.05.2020 17:30 11,7 C 90 % 1028,5 hPa 0,0 mm W 265 11,3 km/h (2 Bft)
25.05.2020 17:35 11,9 C 91 % 1028,6 hPa 0,0 mm W 264 8,0 km/h (2 Bft)
25.05.2020 17:40 12,1 C 90 % 1028,6 hPa 0,0 mm W 274 11,3 km/h (2 Bft)
25.05.2020 17:45 12,3 C 90 % 1028,7 hPa 0,0 mm W-SW 257 12,9 km/h (3 Bft)
25.05.2020 17:50 12,2 C 89 % 1028,6 hPa 0,0 mm W 266 12,9 km/h (3 Bft)
25.05.2020 17:55 12,2 C 89 % 1028,6 hPa 0,0 mm W 265 12,9 km/h (3 Bft)
25.05.2020 18:00 12,2 C 89 % 1028,6 hPa 0,0 mm W 270 16,1 km/h (3 Bft)
25.05.2020 18:05 12,2 C 89 % 1028,7 hPa 0,0 mm W 263 12,9 km/h (3 Bft)
25.05.2020 18:10 12,3 C 89 % 1028,5 hPa 0,0 mm W 272 14,5 km/h (3 Bft)
25.05.2020 18:15 12,2 C 88 % 1028,5 hPa 0,0 mm W 271 14,5 km/h (3 Bft)
25.05.2020 18:20 12,2 C 88 % 1028,3 hPa 0,0 mm W-NW 284 16,1 km/h (3 Bft)
25.05.2020 18:25 12,1 C 88 % 1028,3 hPa 0,0 mm W 277 17,7 km/h (3 Bft)
25.05.2020 18:30 12,1 C 88 % 1028,3 hPa 0,0 mm W-NW 287 20,9 km/h (4 Bft)
25.05.2020 18:35 12,0 C 88 % 1028,3 hPa 0,2 mm W-SW 250 20,9 km/h (4 Bft)
25.05.2020 18:40 11,9 C 88 % 1028,4 hPa 0,0 mm W 275 22,5 km/h (4 Bft)
25.05.2020 18:45 11,8 C 88 % 1028,5 hPa 0,0 mm W 264 17,7 km/h (3 Bft)
25.05.2020 18:50 11,9 C 88 % 1028,7 hPa 0,0 mm W 267 16,1 km/h (3 Bft)
25.05.2020 18:55 11,9 C 88 % 1028,8 hPa 0,0 mm W 277 11,3 km/h (2 Bft)
25.05.2020 19:00 11,9 C 89 % 1028,8 hPa 0,0 mm W 271 6,4 km/h (2 Bft)
25.05.2020 19:05 12,0 C 89 % 1028,9 hPa 0,0 mm W 271 4,8 km/h (1 Bft)
25.05.2020 19:10 11,9 C 88 % 1028,9 hPa 0,0 mm O 93 11,3 km/h (2 Bft)
25.05.2020 19:15 11,1 C 87 % 1029,0 hPa 0,0 mm O 94 16,1 km/h (3 Bft)
25.05.2020 19:20 10,7 C 87 % 1029,0 hPa 0,0 mm O 90 16,1 km/h (3 Bft)
25.05.2020 19:25 10,3 C 87 % 1029,6 hPa 0,0 mm N 5 19,3 km/h (3 Bft)
25.05.2020 19:30 10,2 C 87 % 1029,6 hPa 1,8 mm O-NO 59 19,3 km/h (3 Bft)
25.05.2020 19:35 10,1 C 88 % 1029,4 hPa 0,2 mm NW 309 6,4 km/h (2 Bft)
25.05.2020 19:40 10,1 C 88 % 1029,4 hPa 0,0 mm NW 307 6,4 km/h (2 Bft)
25.05.2020 19:45 10,1 C 88 % 1029,3 hPa 0,0 mm NW 307 1,6 km/h (1 Bft)
25.05.2020 19:50 10,1 C 88 % 1029,4 hPa 0,0 mm NW 307 3,2 km/h (1 Bft)
25.05.2020 19:55 10,1 C 88 % 1029,5 hPa 0,0 mm O 101 3,2 km/h (1 Bft)
25.05.2020 20:00 10,1 C 88 % 1029,4 hPa 0,0 mm O 101 1,6 km/h (1 Bft)
25.05.2020 20:05 10,0 C 89 % 1029,4 hPa 0,0 mm O 101 0,0 km/h (0 Bft)
25.05.2020 20:10 10,1 C 89 % 1029,4 hPa 0,0 mm O 101 0,0 km/h (0 Bft)
25.05.2020 20:15 10,1 C 89 % 1029,7 hPa 0,0 mm N-NO 13 6,4 km/h (2 Bft)
25.05.2020 20:20 10,1 C 89 % 1029,9 hPa 0,4 mm O-NO 75 8,0 km/h (2 Bft)
25.05.2020 20:25 10,0 C 89 % 1029,7 hPa 1,6 mm O 98 12,9 km/h (3 Bft)
25.05.2020 20:30 9,8 C 90 % 1029,4 hPa 1,2 mm O-SO 117 14,5 km/h (3 Bft)
25.05.2020 20:35 9,6 C 90 % 1029,6 hPa 0,2 mm SO 133 9,7 km/h (2 Bft)
25.05.2020 20:40 9,6 C 90 % 1029,8 hPa 0,0 mm N 10 8,0 km/h (2 Bft)
25.05.2020 20:45 9,5 C 90 % 1029,9 hPa 0,2 mm N 10 1,6 km/h (1 Bft)
25.05.2020 20:50 9,4 C 90 % 1029,9 hPa 0,2 mm N 10 0,0 km/h (0 Bft)
25.05.2020 20:55 9,4 C 90 % 1030,0 hPa 0,4 mm N 10 0,0 km/h (0 Bft)
25.05.2020 21:00 9,4 C 90 % 1030,1 hPa 0,0 mm N 10 4,8 km/h (1 Bft)
25.05.2020 21:05 9,4 C 90 % 1030,1 hPa 0,0 mm SO 144 1,6 km/h (1 Bft)
25.05.2020 21:10 9,4 C 91 % 1029,9 hPa 0,0 mm W-SW 252 3,2 km/h (1 Bft)
25.05.2020 21:15 9,4 C 91 % 1029,9 hPa 0,0 mm W-NW 284 6,4 km/h (2 Bft)
25.05.2020 21:20 9,4 C 91 % 1030,0 hPa 0,0 mm W 279 8,0 km/h (2 Bft)
25.05.2020 21:25 9,5 C 91 % 1030,1 hPa 0,0 mm W-NW 284 9,7 km/h (2 Bft)
25.05.2020 21:30 9,5 C 91 % 1030,3 hPa 0,0 mm W 278 6,4 km/h (2 Bft)
25.05.2020 21:35 9,6 C 91 % 1030,4 hPa 0,0 mm W 278 4,8 km/h (1 Bft)
25.05.2020 21:40 9,5 C 91 % 1030,4 hPa 0,0 mm W 278 4,8 km/h (1 Bft)
25.05.2020 21:45 9,5 C 91 % 1030,4 hPa 0,0 mm W 278 0,0 km/h (0 Bft)
25.05.2020 21:50 9,5 C 91 % 1030,6 hPa 0,0 mm W 278 3,2 km/h (1 Bft)
25.05.2020 21:55 9,5 C 92 % 1030,8 hPa 0,0 mm O-SO 113 8,0 km/h (2 Bft)
25.05.2020 22:00 9,5 C 92 % 1030,8 hPa 0,0 mm O 101 11,3 km/h (2 Bft)
25.05.2020 22:05 9,4 C 92 % 1030,7 hPa 0,0 mm N 9 4,8 km/h (1 Bft)
25.05.2020 22:10 9,4 C 92 % 1030,7 hPa 0,0 mm N 9 3,2 km/h (1 Bft)
25.05.2020 22:15 9,4 C 92 % 1030,6 hPa 0,0 mm N 9 0,0 km/h (0 Bft)
25.05.2020 22:20 9,3 C 92 % 1030,8 hPa 0,0 mm N 9 4,8 km/h (1 Bft)
25.05.2020 22:25 9,3 C 92 % 1030,8 hPa 0,0 mm N 9 1,6 km/h (1 Bft)
25.05.2020 22:30 9,3 C 92 % 1030,8 hPa 0,0 mm N 9 3,2 km/h (1 Bft)
25.05.2020 22:35 9,2 C 92 % 1030,8 hPa 0,0 mm N 9 3,2 km/h (1 Bft)
25.05.2020 22:40 9,2 C 92 % 1030,8 hPa 0,0 mm N 9 0,0 km/h (0 Bft)
25.05.2020 22:45 9,2 C 92 % 1030,8 hPa 0,0 mm N 9 0,0 km/h (0 Bft)
25.05.2020 22:50 9,1 C 92 % 1031,0 hPa 0,0 mm N 5 3,2 km/h (1 Bft)
25.05.2020 22:55 9,1 C 92 % 1031,2 hPa 0,0 mm NW 323 4,8 km/h (1 Bft)
25.05.2020 23:00 9,2 C 92 % 1031,4 hPa 0,0 mm W 263 9,7 km/h (2 Bft)
25.05.2020 23:05 9,2 C 92 % 1031,4 hPa 0,2 mm W 264 6,4 km/h (2 Bft)
25.05.2020 23:10 9,3 C 92 % 1031,3 hPa 0,0 mm W 264 3,2 km/h (1 Bft)
25.05.2020 23:15 9,4 C 92 % 1031,2 hPa 0,0 mm W 264 4,8 km/h (1 Bft)
25.05.2020 23:20 9,4 C 92 % 1031,3 hPa 0,0 mm W 264 3,2 km/h (1 Bft)
25.05.2020 23:25 9,4 C 92 % 1031,3 hPa 0,0 mm W 264 3,2 km/h (1 Bft)
25.05.2020 23:30 9,4 C 92 % 1031,3 hPa 0,0 mm W 264 3,2 km/h (1 Bft)
25.05.2020 23:35 9,4 C 92 % 1031,5 hPa 0,0 mm W 264 1,6 km/h (1 Bft)
25.05.2020 23:40 9,4 C 92 % 1031,6 hPa 0,0 mm W 264 0,0 km/h (0 Bft)
25.05.2020 23:45 9,4 C 92 % 1031,7 hPa 0,0 mm W 264 1,6 km/h (1 Bft)
25.05.2020 23:50 9,5 C 92 % 1031,6 hPa 0,0 mm W 264 4,8 km/h (1 Bft)
25.05.2020 23:55 9,5 C 92 % 1031,7 hPa 0,0 mm W 264 0,0 km/h (0 Bft)
_ Min-Zeit 22:45 15:15 15:30 - - - 00:00
Minimum _ 9,1 C 66 % 1027,7 hPa - - - 0,0 km/h (0 Bft)
_ Max-Zeit 15:15 05:40 23:45 19:30 - - 13:55
Maximum _ 16,5 C 92 % 1031,7 hPa 1,8 mm - - 33,8 km/h
W (5 Bft)
Durchschnitt _ 11,1 C 88 % 1029,6 hPa #17,0 mm W - 11,4 km/h (2 Bft)